Temperature
24 25 24 24 24 24 24 24 24 25 24 24 24 23 23 21 21 21 20 20 20 20 19 19 19 20 20 21 21 21 21 20 20 19 19 19 18 18 18 18 17 17 17 17
25 24 23 24 24 24 24 23 24 24 23 23 24 23 22 21 20 19 19 19 19 19 19 19 19 19 20 20 21 21 21 20 20 20 20 19 19 18 18 18 18 18 17 17
24 23 23 23 23 23 23 22 22 22 23 23 23 23 22 21 20 19 19 18 18 17 17 17 18 18 19 19 20 21 21 21 20 20 20 20 19 19 18 18 18 18 18 17
22 22 22 22 21 21 22 21 21 21 22 23 23 22 23 21 21 20 18 18 17 17 16 16 16 17 17 18 19 20 20 20 20 19 20 20 19 18 18 18 18 17 17 17
21 21 21 20 20 20 20 20 21 21 21 22 22 22 23 20 19 19 18 17 17 16 16 16 16 16 16 17 18 19 19 19 19 19 19 19 18 18 17 17 17 17 17 17
21 20 20 20 20 20 20 20 21 21 21 20 22 22 20 18 17 17 17 17 16 16 16 15 15 15 15 16 17 18 18 18 18 18 18 18 17 17 17 16 17 17 17 17
21 20 20 19 19 20 19 19 19 20 20 20 21 20 16 16 16 16 16 16 16 15 15 15 14 14 15 15 16 16 17 17 17 17 17 16 16 16 16 16 16 17 17 17
20 19 18 18 18 17 18 18 17 17 18 19 19 18 15 16 16 16 15 15 15 15 15 14 14 14 14 14 15 15 15 15 15 15 15 15 15 15 15 15 16 16 16 16
19 18 18 18 17 17 17 17 17 16 17 17 18 16 15 16 16 15 15 14 14 14 14 14 14 13 14 14 14 14 14 14 14 14 14 14 14 15 15 15 15 16 16 16
19 18 18 17 17 17 15 15 15 15 15 16 16 15 13 13 13 14 13 13 13 13 13 13 13 13 13 13 13 13 13 13 13 13 13 14 14 14 14 15 15 15 16 16
19 19 18 17 15 14 13 14 14 14 15 14 14 12 12 11 12 12 12 11 11 12 12 13 13 13 13 13 13 13 13 13 13 13 13 14 14 14 14 14 15 15 16 16
17 18 18 16 15 15 13 13 13 13 13 14 13 12 12 11 11 11 11 10 11 11 12 12 12 12 13 13 13 13 13 13 13 13 14 14 14 14 14 15 15 15 16 16
17 18 18 17 16 15 14 14 14 14 13 12 12 12 12 11 11 10 10 10 10 11 11 11 12 12 12 13 13 13 13 13 13 14 14 14 14 14 14 15 15 15 16 15
17 17 16 15 14 13 13 14 14 14 12 12 12 12 11 11 10 10 10 10 11 11 11 11 11 11 12 12 13 13 13 13 14 14 14 14 14 14 15 15 15 16 15 15
18 17 16 15 14 14 14 13 14 13 12 12 11 11 10 10 10 10 10 11 11 11 12 11 11 11 12 12 12 12 13 13 13 13 14 14 14 15 15 15 15 15 15 15
17 16 16 15 15 15 14 14 13 12 12 12 12 11 10 10 10 11 11 12 12 12 12 12 12 12 12 12 12 12 12 12 13 13 13 14 14 14 15 15 15 15 15 15
16 17 16 16 15 15 15 14 13 12 12 11 11 10 10 11 11 11 12 12 12 12 12 12 12 12 12 12 12 12 12 12 12 12 13 13 13 13 13 14 14 14 14 15
16 16 16 16 16 15 14 14 13 12 12 12 11 12 11 12 12 12 12 12 13 13 13 13 13 13 13 12 12 12 12 12 12 11 12 12 12 12 12 13 13 13 13 13
16 16 16 16 16 15 14 14 13 13 14 13 12 13 12 13 14 15 13 13 13 13 13 13 13 13 13 13 13 13 12 12 11 11 11 11 11 11 12 12 12 12 12 12
15 16 16 16 17 16 15 15 13 14 15 14 13 13 13 15 17 15 13 13 13 13 13 13 14 14 14 13 13 13 13 12 11 11 11 11 11 11 11 11 11 12 12 12
16 16 16 17 17 17 15 13 13 15 15 14 13 13 13 14 14 13 13 13 13 14 14 14 14 14 14 13 13 13 13 12 11 11 11 11 11 11 11 11 11 11 11 11
17 17 16 16 17 16 14 14 15 15 14 13 13 13 12 12 12 13 13 13 13 14 14 14 14 14 14 14 13 13 13 12 12 11 11 11 11 11 11 11 11 11 11 11
16 16 17 16 16 14 13 14 13 12 13 13 13 12 12 12 12 13 13 13 13 13 14 14 15 15 14 14 14 14 13 13 12 11 11 11 11 11 11 11 11 11 11 11
16 14 15 15 15 14 13 13 12 12 12 12 12 12 12 12 12 13 13 13 13 14 14 14 15 15 15 15 14 14 14 13 12 12 11 11 11 11 11 11 10 10 10 10
16 14 15 16 16 14 13 13 12 12 12 12 12 12 12 12 12 12 13 13 13 14 14 14 15 15 15 15 15 15 14 13 13 12 12 11 11 11 10 10 10 10 10 10
15 15 16 17 16 16 15 13 12 12 12 12 12 12 12 12 12 12 12 13 13 14 14 14 15 15 15 15 15 15 15 14 13 13 12 11 11 11 10 10 10 10 10 9
Wind_Speed
1 2 4 5 5 5 6 7 8 5 3 4 4 2 3 6 8 10 10 11 11 11 11 9 9 8 10 13 15 16 16 16 14 11 11 10 9 8 8 8 11 12 12 12
3 6 7 5 4 4 5 7 7 4 2 5 6 5 3 5 8 9 11 12 13 14 14 12 11 9 9 11 15 17 17 17 16 13 12 10 8 7 7 7 9 12 13 12
6 7 6 4 7 7 5 5 7 8 7 7 8 9 7 3 4 8 11 12 13 14 15 15 14 12 10 10 12 14 16 16 16 15 10 8 6 4 5 6 8 10 12 11
6 8 7 7 9 11 8 7 10 10 10 9 7 10 6 2 2 9 13 14 15 15 15 15 15 14 12 11 10 12 13 14 13 14 11 11 6 4 4 3 5 7 9 10
6 10 11 11 11 11 10 12 13 13 14 14 12 11 5 2 5 11 14 15 15 15 15 15 15 14 12 11 8 5 6 9 11 12 11 9 5 2 1 0 3 5 6 8
8 7 9 11 9 8 13 14 13 11 11 15 14 13 3 5 9 13 15 16 16 15 15 14 14 13 11 10 6 1 5 8 10 11 10 10 9 5 2 1 3 4 4 6
4 9 9 12 12 9 13 12 7 7 8 9 4 5 5 8 9 12 14 15 15 15 14 14 14 12 11 10 7 4 6 9 10 12 12 11 9 6 2 1 3 4 4 5
7 6 10 11 11 10 11 9 6 6 6 4 2 2 6 8 10 12 13 14 15 15 14 13 12 9 8 8 7 7 8 9 10 11 12 11 9 5 1 2 4 5 4 4
7 5 7 9 9 10 10 8 7 7 8 7 2 4 4 13 15 17 17 17 17 16 14 11 9 8 8 8 8 9 9 10 9 9 10 9 7 5 1 3 5 4 4 4
6 3 6 7 8 10 8 8 6 4 4 3 0 4 8 17 19 18 18 18 17 16 12 10 8 9 9 8 9 9 9 9 9 8 7 6 6 4 1 4 6 6 6 6
5 4 4 6 10 13 10 7 5 4 4 3 2 3 8 12 14 15 16 16 16 14 12 10 9 9 8 8 9 9 8 7 7 6 6 5 3 1 4 6 7 6 6 6
4 4 3 4 4 7 7 8 5 4 4 4 2 2 7 11 12 14 15 16 16 15 13 12 11 10 9 9 8 8 7 6 5 4 3 2 2 5 7 8 6 5 5 6
3 4 1 3 2 8 7 12 7 3 2 3 3 3 9 13 15 15 15 15 15 15 15 13 13 12 11 10 9 8 7 5 3 2 0 2 4 6 6 4 4 5 6 6
1 4 5 5 4 5 8 13 13 8 4 4 6 7 12 17 16 16 15 14 13 14 14 14 13 13 12 11 10 9 7 5 3 2 1 1 2 2 2 1 2 3 4 5
1 4 6 7 4 5 9 11 12 11 8 6 7 8 11 14 13 13 12 12 12 13 14 14 13 12 12 12 11 11 10 8 7 6 5 4 4 3 2 1 1 2 3 5
1 4 5 4 2 3 6 10 10 9 8 7 7 7 9 11 10 11 12 12 12 13 13 13 13 13 13 13 13 12 12 11 10 10 9 8 7 6 6 5 3 2 1 2
1 3 3 2 1 3 3 6 6 5 6 5 6 5 10 9 11 11 11 11 11 12 12 12 12 12 12 12 12 12 12 11 11 11 10 9 9 8 8 7 6 5 4 3
1 2 1 1 2 1 3 1 2 2 2 3 4 6 8 8 7 5 9 11 11 11 11 11 11 11 11 11 11 10 11 11 12 11 11 10 9 9 8 8 8 7 6 6
0 2 2 1 1 2 2 2 1 1 1 1 3 6 8 8 0 7 11 12 11 10 10 9 9 9 10 10 10 10 11 11 11 11 11 11 10 10 10 9 9 8 7 7
2 2 3 2 2 1 4 5 2 3 2 2 2 5 8 8 5 8 13 13 11 10 9 9 8 9 9 9 9 10 10 11 11 10 10 9 9 9 9 9 8 7 6 6
3 3 3 3 2 2 5 5 4 2 4 2 2 4 6 7 7 9 12 10 10 9 9 9 8 8 8 7 7 8 10 10 8 8 8 8 8 8 8 8 7 7 6 6
3 3 3 3 3 2 8 6 4 2 3 1 2 4 6 7 8 9 10 10 10 9 9 9 8 7 6 6 6 7 6 5 5 5 6 7 7 7 7 7 7 8 7 7
5 3 2 3 1 4 7 5 1 1 1 0 2 4 6 7 8 9 10 10 9 9 9 9 8 8 6 5 5 5 3 2 2 4 4 5 5 6 6 7 7 7 7 7
5 4 4 5 6 7 7 6 5 4 2 1 3 4 5 6 8 9 9 9 10 10 9 9 9 9 8 7 5 4 2 1 1 3 4 4 5 6 6 5 5 6 7 7
5 7 6 6 5 7 9 9 7 5 3 2 2 3 4 6 8 9 9 10 10 10 9 9 9 9 9 8 6 4 2 2 1 2 3 4 5 5 5 5 5 6 7 7
8 8 7 5 8 7 9 12 10 7 5 3 1 2 3 5 7 8 9 9 9 10 10 9 10 9 9 8 6 3 2 2 1 2 4 4 4 4 4 4 5 5 4 6
Wind_Direction
42 41 24 2 345 313 298 281 274 282 323 288 267 250 73 56 42 31 21 12 5 357 348 343 325 298 275 252 238 231 221 214 208 199 199 198 201 205 208 211 214 215 221 225
160 49 20 14 5 316 296 284 285 286 309 286 267 252 140 79 51 31 16 7 1 354 350 349 340 322 291 266 248 235 223 217 208 201 198 198 197 204 208 211 216 220 223 225
65 31 12 11 10 333 305 308 303 295 292 256 264 247 197 140 61 32 17 7 1 356 348 346 344 335 315 287 263 243 230 216 205 196 188 176 169 168 185 208 215 220 226 228
66 34 20 17 17 348 307 336 307 288 275 263 247 267 203 163 28 16 6 0 356 352 348 345 342 338 329 313 286 254 232 212 195 185 179 173 177 187 203 210 215 215 217 221
64 34 27 19 4 348 327 316 295 280 269 266 246 255 223 73 359 358 355 352 349 347 344 342 340 337 336 331 314 269 210 182 169 167 165 152 133 119 74 320 239 220 213 215
77 54 32 5 346 345 327 305 279 257 254 252 245 239 209 35 357 346 346 346 345 342 340 341 340 342 345 348 351 12 139 144 148 145 136 124 114 96 66 303 252 226 209 208
65 58 29 4 349 348 348 332 292 254 234 246 233 230 82 39 6 349 341 341 341 341 339 339 342 344 351 360 15 54 105 114 120 124 118 110 103 88 60 295 246 229 212 202
1 27 24 14 7 340 344 340 321 290 281 289 235 159 93 33 8 356 349 345 344 344 341 341 345 352 4 16 29 62 87 98 107 115 114 107 99 91 54 292 255 237 224 204
7 28 36 24 18 6 341 342 327 292 287 278 239 105 98 9 5 358 354 351 348 344 343 350 1 14 29 34 41 62 74 83 89 96 100 97 93 89 47 290 254 239 217 192
359 10 33 20 6 20 356 327 313 303 302 275 247 62 7 353 349 346 349 348 344 343 351 2 17 31 45 45 46 51 58 71 78 77 80 81 70 62 345 277 253 228 210 186
352 3 40 40 24 4 0 354 332 303 295 313 346 53 6 343 342 344 348 350 349 355 4 14 25 30 35 38 42 43 45 48 55 60 59 54 44 321 263 254 246 226 207 190
1 339 48 74 61 23 15 358 342 343 353 350 344 40 1 352 357 360 358 359 3 9 17 20 23 24 26 24 24 30 31 29 28 38 41 10 280 257 249 244 232 216 208 203
6 342 327 145 75 20 13 14 10 349 344 8 8 25 7 10 12 9 5 7 12 17 20 23 25 23 18 16 16 20 16 5 5 15 355 261 253 249 248 241 224 215 209 208
336 47 51 60 41 8 13 19 24 27 15 24 23 6 7 6 4 1 5 11 16 22 24 27 28 27 23 21 21 22 18 13 8 359 352 313 297 293 279 259 240 225 220 220
295 100 101 104 95 49 38 27 28 37 29 26 17 17 4 353 349 352 2 12 23 28 31 31 31 30 30 31 30 31 31 32 38 44 44 33 31 33 33 22 302 257 244 240
38 140 143 141 150 37 43 32 27 26 18 19 32 30 351 341 348 3 10 16 25 29 31 33 33 33 33 34 36 37 37 39 45 49 46 41 42 44 41 39 34 21 323 269
162 176 196 134 178 224 48 24 15 16 14 7 18 345 328 338 347 357 3 12 24 27 29 32 34 34 33 33 33 36 37 41 46 48 47 44 45 46 44 45 47 43 42 39
180 181 221 165 196 69 73 66 327 328 353 360 343 325 326 324 324 359 14 11 14 16 20 26 29 33 35 36 37 41 42 44 47 48 48 46 47 50 50 50 48 44 46 49
293 211 213 234 146 129 187 197 241 300 55 32 341 343 345 329 205 61 26 9 1 360 3 11 16 24 31 32 30 40 47 50 49 46 46 46 48 48 47 46 45 42 47 53
119 210 229 223 243 162 150 144 178 241 134 97 355 356 355 351 57 34 0 351 350 351 354 357 4 16 26 27 26 38 45 48 48 45 46 47 46 44 42 41 40 42 47 49
203 201 220 227 236 137 141 146 185 223 94 82 2 357 359 10 2 337 337 345 347 347 347 346 353 6 9 9 17 34 41 44 43 42 43 42 42 41 37 35 34 34 40 43
238 218 210 216 224 178 154 169 203 50 76 59 6 356 349 343 338 341 345 348 350 350 350 346 344 349 352 355 2 27 38 38 41 42 42 41 37 32 30 33 31 30 30 35
225 240 251 234 25 103 170 188 158 163 219 40 347 342 335 333 340 343 344 347 349 349 349 346 339 334 339 350 349 1 28 27 35 43 44 39 44 42 34 34 35 36 34 34
202 201 228 239 225 199 193 198 200 212 232 277 309 319 324 331 338 343 345 347 349 349 347 340 335 334 339 341 332 329 340 304 359 35 36 36 39 46 49 46 41 42 36 32
209 188 215 230 197 190 206 205 199 197 211 240 281 310 327 333 340 345 345 349 347 343 342 338 336 332 329 331 329 323 303 275 340 34 42 41 45 45 53 63 52 47 53 29
199 195 197 210 189 187 187 188 189 194 202 211 255 319 341 340 342 344 346 347 344 341 340 339 338 333 333 335 335 333 296 265 311 39 46 47 50 51 53 73 100 82 49 39
Height
1517 1515 1518 1518 1516 1515 1514 1514 1514 1512 1512 1513 1512 1513 1516 1519 1519 1518 1517 1516 1515 1514 1512 1510 1508 1508 1508 1509 1511 1514 1516 1519 1520 1522 1523 1525 1527 1529 1530 1532 1534 1536 1538 1539
1516 1522 1523 1521 1519 1517 1516 1517 1516 1513 1514 1513 1511 1512 1515 1519 1519 1520 1518 1516 1515 1512 1510 1508 1506 1505 1503 1503 1504 1507 1510 1513 1515 1516 1519 1521 1524 1526 1528 1529 1530 1532 1534 1536
1522 1528 1525 1522 1521 1520 1519 1521 1520 1519 1514 1512 1512 1511 1512 1516 1518 1519 1519 1517 1515 1512 1509 1506 1503 1501 1499 1498 1498 1500 1503 1506 1508 1511 1513 1516 1519 1522 1524 1526 1527 1529 1531 1533
1527 1529 1527 1525 1527 1526 1522 1522 1522 1519 1517 1511 1511 1513 1507 1512 1515 1517 1517 1516 1514 1512 1508 1505 1501 1498 1495 1493 1492 1493 1495 1498 1501 1504 1506 1510 1514 1518 1521 1523 1525 1526 1528 1529
1532 1533 1532 1533 1533 1531 1527 1525 1521 1517 1514 1512 1508 1512 1504 1511 1516 1517 1518 1516 1514 1511 1508 1504 1500 1496 1493 1489 1487 1487 1488 1491 1493 1497 1499 1503 1508 1512 1517 1520 1522 1523 1524 1526
1535 1538 1538 1538 1534 1533 1528 1522 1514 1513 1512 1515 1503 1507 1512 1522 1524 1521 1519 1517 1514 1511 1507 1503 1499 1495 1491 1487 1485 1484 1484 1486 1488 1491 1494 1497 1502 1507 1512 1516 1520 1521 1521 1523
1535 1539 1541 1541 1535 1532 1529 1527 1521 1517 1515 1510 1501 1508 1527 1529 1528 1526 1522 1518 1514 1511 1507 1503 1498 1495 1491 1487 1485 1483 1483 1484 1486 1487 1490 1493 1498 1503 1508 1513 1517 1519 1520 1521
1540 1542 1545 1544 1543 1541 1535 1533 1538 1536 1525 1516 1510 1519 1534 1530 1529 1527 1523 1519 1514 1510 1506 1502 1498 1494 1491 1488 1486 1484 1484 1484 1485 1487 1488 1491 1495 1499 1505 1510 1515 1517 1519 1520
1544 1546 1547 1548 1546 1544 1541 1537 1537 1538 1528 1525 1518 1526 1531 1529 1528 1526 1523 1518 1514 1510 1506 1502 1498 1495 1493 1490 1488 1487 1486 1486 1486 1487 1489 1491 1495 1499 1504 1509 1513 1516 1518 1519
1545 1547 1548 1549 1547 1547 1549 1545 1541 1541 1540 1533 1527 1533 1542 1536 1533 1529 1525 1521 1515 1510 1506 1503 1500 1497 1495 1493 1491 1490 1489 1489 1489 1490 1491 1494 1497 1501 1505 1509 1512 1515 1517 1518
1547 1546 1548 1550 1555 1556 1553 1551 1547 1543 1541 1543 1544 1551 1548 1545 1540 1534 1529 1523 1517 1511 1508 1505 1502 1500 1498 1496 1494 1494 1493 1493 1493 1494 1496 1498 1501 1504 1507 1510 1512 1514 1516 1517
1551 1546 1548 1554 1557 1556 1557 1555 1552 1551 1547 1544 1549 1557 1550 1546 1542 1537 1531 1525 1520 1515 1511 1508 1506 1503 1502 1500 1499 1498 1497 1497 1497 1498 1500 1502 1504 1506 1509 1511 1512 1513 1515 1516
1552 1549 1547 1550 1557 1558 1557 1554 1550 1550 1550 1551 1554 1558 1549 1546 1542 1539 1534 1529 1524 1519 1515 1512 1509 1507 1505 1503 1502 1501 1501 1501 1501 1502 1503 1504 1506 1508 1509 1511 1511 1513 1514 1515
1556 1553 1555 1563 1566 1564 1562 1558 1553 1552 1555 1555 1557 1556 1552 1549 1546 1542 1538 1534 1529 1525 1521 1517 1514 1512 1509 1507 1505 1504 1503 1503 1503 1504 1504 1506 1507 1508 1509 1510 1510 1511 1512 1513
1555 1556 1558 1562 1563 1562 1562 1562 1558 1558 1559 1560 1560 1558 1558 1554 1550 1546 1542 1538 1534 1531 1527 1524 1521 1518 1515 1512 1510 1508 1506 1505 1505 1504 1505 1505 1506 1507 1507 1508 1509 1509 1510 1511
1557 1557 1559 1562 1563 1562 1562 1563 1562 1563 1563 1561 1559 1561 1560 1557 1552 1548 1545 1541 1538 1535 1533 1530 1527 1524 1521 1518 1515 1512 1510 1508 1507 1506 1505 1505 1505 1506 1506 1506 1507 1507 1508 1508
1558 1557 1557 1557 1561 1561 1562 1566 1567 1567 1567 1566 1565 1566 1561 1557 1553 1551 1548 1545 1542 1540 1538 1535 1532 1529 1526 1523 1520 1517 1514 1512 1510 1509 1507 1507 1506 1506 1506 1506 1506 1506 1505 1505
1558 1558 1557 1557 1560 1562 1567 1567 1569 1568 1567 1567 1566 1564 1561 1558 1555 1553 1550 1548 1545 1543 1541 1539 1536 1533 1531 1528 1525 1522 1519 1517 1515 1513 1511 1510 1509 1508 1507 1506 1505 1505 1504 1504
1561 1559 1558 1556 1556 1563 1565 1565 1567 1566 1564 1566 1565 1563 1560 1557 1554 1553 1552 1550 1548 1546 1544 1542 1539 1537 1535 1532 1529 1527 1525 1522 1519 1517 1515 1514 1512 1511 1509 1508 1507 1506 1505 1504
1562 1560 1557 1557 1555 1558 1560 1564 1567 1568 1561 1564 1564 1563 1561 1556 1550 1555 1554 1552 1550 1548 1546 1544 1542 1540 1537 1535 1532 1531 1528 1525 1523 1521 1519 1517 1516 1514 1512 1511 1509 1508 1507 1505
1557 1558 1556 1554 1553 1554 1560 1564 1567 1564 1562 1564 1564 1564 1562 1560 1560 1560 1556 1554 1552 1549 1547 1545 1544 1542 1539 1537 1535 1533 1531 1528 1526 1524 1522 1520 1518 1517 1515 1513 1511 1509 1508 1506
1553 1553 1554 1554 1553 1559 1560 1563 1563 1561 1563 1564 1564 1564 1564 1562 1561 1559 1557 1555 1553 1551 1549 1547 1545 1543 1541 1539 1537 1535 1533 1530 1528 1526 1524 1523 1521 1519 1516 1514 1512 1510 1509 1507
1554 1553 1551 1552 1554 1557 1559 1560 1562 1563 1564 1564 1565 1564 1564 1563 1561 1559 1557 1556 1553 1551 1549 1547 1545 1544 1542 1540 1538 1536 1534 1532 1530 1528 1527 1525 1523 1520 1518 1516 1514 1512 1510 1508
1551 1556 1554 1553 1552 1556 1558 1560 1561 1562 1563 1564 1564 1564 1563 1562 1561 1559 1557 1555 1553 1551 1549 1547 1545 1544 1542 1540 1538 1536 1534 1532 1531 1530 1528 1527 1525 1523 1520 1517 1515 1514 1512 1511
1547 1552 1550 1548 1550 1554 1556 1557 1560 1561 1562 1563 1563 1563 1563 1562 1560 1559 1557 1555 1553 1551 1549 1547 1545 1543 1541 1539 1537 1536 1534 1533 1532 1531 1530 1528 1526 1524 1522 1520 1518 1516 1515 1513
1542 1544 1544 1542 1544 1547 1550 1554 1557 1559 1561 1562 1562 1563 1562 1561 1560 1559 1557 1555 1553 1551 1549 1547 1545 1542 1540 1538 1537 1535 1534 1533 1533 1532 1531 1529 1528 1526 1524 1522 1521 1519 1517 1516